Regional Weather Roundup
Issued by NWS Northern Indiana

Home | Current Version | Previous Version | Graphics & Text | Print | Product List | Glossary On
Versions: 1 2 3 4 5 6 7 8 9 10 11 12 13 14 15 16 17 18 19 20 21 22 23 24 25 26 27 28 29 30 31 32 33 34 35 36 37 38 39 40 41 42 43 44 45 46 47 48 49 50
000
ASUS43 KIWX 230300
RWRIWX

KIWX WEATHER ROUNDUP
NATIONAL WEATHER SERVICE NORTHERN INDIANA
1100 PM EDT TUE JUL 22 2014

NOTE: "FAIR" INDICATES FEW OR NO CLOUDS BELOW 12,000 FEET WITH NO
SIGNIFICANT WEATHER AND/OR OBSTRUCTIONS TO VISIBILITY.

* THESE STATIONS ARE NOT UNDER NWS QUALITY CONTROL. THEY ALSO MAY NOT
  REPORT WEATHER SUCH AS PRECIPITATION OR FOG.

INZ001>027-230400-
NORTHERN INDIANA

CITY           SKY/WX    TMP DP  RH WIND       PRES   REMARKS
GARY*            N/A     82  73  74 SW8       29.96S
VALPARAISO     CLEAR     78  71  79 SW9       29.99S
SOUTH BEND     PTCLDY    80  70  71 SW12      29.97F
GOSHEN         CLOUDY    80  69  69 SW9       29.97F
ANGOLA*        CLOUDY    79  70  73 SW5       29.98F
FORT WAYNE     MOCLDY    77  68  73 SW7       29.99F
PERU/GRISSOM   CLEAR     74  74 100 SW6       30.01R

$$
INZ028>050-230400-
CENTRAL INDIANA

CITY           SKY/WX    TMP DP  RH WIND       PRES   REMARKS
LAFAYETTE      CLEAR     76  70  82 W3        30.01R
KOKOMO*        CLEAR     77  70  78 SW9       30.01S
MUNCIE*        MOCLDY    79  65  62 SW5       30.02F
INDIANAPOLIS   MOCLDY    78  68  71 SW8       30.02F

$$
MIZ043>046-050>051-056>058-064>065-071>073-077>080-230400-
SOUTHWEST LOWER MICHIGAN

CITY           SKY/WX    TMP DP  RH WIND       PRES   REMARKS
BATTLE CREEK   CLOUDY    81  68  64 SW9       29.97R
BENTON HARBOR  CLOUDY    80  71  74 SW7       29.95R
COLDWATER*     CLOUDY    80  69  70 SW7       29.97F
HILLSDALE*     CLOUDY    79  67  66 SW5       29.99S
HOLLAND        CLEAR     82  73  74 SW13      29.96R
GRAND RAPIDS   CLOUDY    82  72  71 W13       29.97R THUNDER
KALAMAZOO      MOCLDY    80  69  69 SW9       29.97R
STURGIS*       CLOUDY    77  72  83 SW6       29.97S
THREE RIVERS*  CLOUDY    79  71  76 SW6       29.97R

$$
OHZ001>008-015>018-024>025-230400-
NORTHWEST OHIO

CITY           SKY/WX    TMP DP  RH WIND       PRES   REMARKS
DEFIANCE       CLEAR     78  67  68 CALM      29.98S
FINDLAY        CLEAR     74  67  78 S8        29.98F
TOLEDO EXPRESS PTCLDY    79  66  64 SW6       29.97S
TOLEDO METCALF CLEAR     79  65  62 SW7       29.97F
LIMA           CLEAR     77  67  71 S8        30.01F

$$
&&



USA.gov is the U.S. government's official web portal to all federal, state and local government web resources and services.